STARLINK-36347, 68521

Orbit data source: Space-Track

STARLINK-36347, 68521 is a payload satellite owned by SpaceX/Seattle (US) in LEO that was launched on Mon, 30 Mar 2026 UTC via an FALCON 9 launch vehicle from the Air Force Eastern Test Range (AFETR). Payload-class satellites include a variety of spacecraft equipped with specific instruments for various scientific and technological missions. These include communications satellites like Starlink; space stations such as the ISS; scientific satellites like the Hubble; Earth observation satellites from companies like Planet Labs, Umbra, and HawkEye 360; GPS; miniature CubeSats for education and research; and military/defense satellites.

Loading next visibility...
Identifier
68521, 2026-068P
Orbit
LEO
Country
Flag of USUS
Related business
Manufacturer
SpaceX/Seattle
Mission
Operational spacecraft
Bus & Motor
STARLINK V2MO, Unknown motor
Mass
575 kg wet, ~530 kg dry
Launch date (UTC)
2026-03-30 (3 months ago)
Launch vehicle
FALCON 9
Launch site
Air Force Eastern Test Range (AFETR)
Object type
Payload
Rocket body
Debris
Shape & HBR
Unknown shape, 2.6 m
Radar Cross Section
Large (>1 m²)

Expand to show TLE details & history
Last TLE update: 1 day ago

TLE from 1 day ago
0 STARLINK-36347
1 68521U 26068P   26170.84162255  .00014211  00000-0  49079-3 0  9994
2 68521  53.1599  14.8705 0001090  82.3453 277.7672 15.30213967 12587
Epoch: 2026-06-19T20:11Z
TLE epoch observation values (Epoch: 2026-06-19T20:11:56.188Z)
Latitude
0.00002°
Longitude
163.82159°
Altitude
475.972 km
Speed
7.629 km/s
True Right ascension
00h 59m 28s
True Declination
0° 00' 00"
Sunlit
Object was in daylight at epoch
Visualization orbit readout
Latitude
Unknown
Longitude
Unknown
Altitude
Unknown
Speed
Unknown
Apparent Right ascension
Unknown
Apparent Declination
Unknown
Sunlit
N/A
Visualization observer readout
Local Sidereal Time
10:18:58
Azimuth
Unknown
Elevation
Unknown
Doppler factor
Unknown
Orbital elements
Apogee altitude
476.177 km
Perigee altitude
474.683 km
Semi-major axis
6,853.567 km
Eccentricity
0.00011
Inclination
53.1599°
RAAN
14.8705°
Arg. of periapsis
82.3453°
True anomaly
277.75482°
Mean anomaly
277.7672°
Eccentric anomaly
277.76101°
Mean motion
3.82532 °/min
Orbital period
94.11 mins
BSTAR
0.00049079
Loading maneuver chart data...
Computing Atmospheric mass density...
Loading historical data...
Loading historical data...
Loading historical data...
Loading historical data...
Loading historical data...
Loading historical data...
Loading historical data...

Documentation

Showing up to 5 results
|